Location: Castro Valley
(37.6940°N, 122.0850°W)
Time: 19:37:45
(UTC-07:00)

Amateur Radio Satellites - All Passes

Search period start: 02 August 2015 19:07
Search period end: 03 August 2015 19:07
Location: Castro Valley, 37.6940°N, 122.0850°W

Satellite Date Start Highest point End Downlink Frequencies (MHz)
Time Altitude Azimuth
PCSat 02 Aug 19:16:33 19:21:46 49° 248° (WSW) 19:26:56 145.827
BRITE-PL 02 Aug 19:23:13 19:26:42 24° 71° (ENE) 19:30:10 437.365/2234.400
GOMX 1 02 Aug 19:26:17 19:28:31 15° 68° (ENE) 19:30:54 467.674
VERMONT LUNAR 02 Aug 19:28:31 19:31:39 56° 351° (N) 19:34:47 437.305
RS-15 02 Aug 19:34:39 19:39:05 14° 100° (E) 19:44:35 29.354- 29.394
ISS 02 Aug 19:45:58 19:48:14 18° 131° (SE) 19:50:35 145.825
STRAND 1 02 Aug 19:55:36 20:00:35 52° 100° (E) 20:05:32 437.568
SO-50 02 Aug 19:56:37 19:59:32 15° 251° (WSW) 20:02:11 436.795
CUTE-I 02 Aug 20:01:09 20:04:42 17° 269° (W) 20:08:00 437.470
COMPASS 1 02 Aug 20:06:34 20:08:14 12° 67° (ENE) 20:10:07 437.405
PHONESAT 2.4 02 Aug 20:10:56 20:14:25 69° 159° (SSE) 20:17:55 2401.200-2431.200
CUBESAT XI-V 02 Aug 20:21:33 20:25:11 23° 291° (WNW) 20:28:42 437.345
SEEDS 02 Aug 20:22:45 20:26:09 24° 70° (ENE) 20:29:39 437.485
HO-68 02 Aug 20:25:21 20:32:14 55° 70° (ENE) 20:39:13 435.675
CUTE 1.7 + AOD 2 02 Aug 20:28:05 20:31:57 35° 72° (ENE) 20:35:53 437.475
CANX-2 02 Aug 20:36:29 20:40:35 49° 75° (ENE) 20:44:46 2200.000
CINEMA 3 02 Aug 20:38:19 20:41:36 23° 70° (ENE) 20:45:00 145.822/145.860
PRISM 02 Aug 20:39:12 20:43:14 57° 286° (WNW) 20:47:15 437.425
DOVE 4 02 Aug 20:41:37 20:45:42 63° 76° (ENE) 20:49:50 437.250
Oscar 11 02 Aug 20:41:41 20:43:14 12° 66° (ENE) 20:45:01 145.826/435.025
AAUSAT CUBESAT 2 02 Aug 20:44:18 20:47:51 28° 71° (ENE) 20:51:29 437.432
Cosmos 2499 02 Aug 20:47:07 20:54:34 31° 274° (W) 21:01:47 435.465 / 435.565
CUBEBUG 2 02 Aug 20:57:21 21:00:07 18° 68° (ENE) 21:03:04 437.445
BRITE-PL 02 Aug 21:01:37 21:05:14 24° 265° (W) 21:08:39 437.365/2234.400
GOMX 1 02 Aug 21:02:24 21:06:25 40° 262° (W) 21:10:20 467.674
VERMONT LUNAR 02 Aug 21:05:28 21:08:36 54° 8° (N) 21:11:43 437.305
ISS 02 Aug 21:21:24 21:24:29 39° 326° (NW) 21:27:34 145.825
STRAND 1 02 Aug 21:35:59 21:39:25 18° 295° (WNW) 21:42:39 437.568
RS-15 02 Aug 21:39:01 21:49:49 76° 117° (ESE) 22:01:02 29.354- 29.394
COMPASS 1 02 Aug 21:39:22 21:43:29 53° 261° (W) 21:47:38 437.405
ZACube-1 02 Aug 21:44:50 21:48:38 35° 72° (ENE) 21:52:35 437.345
PHONESAT 2.4 02 Aug 21:49:02 21:52:29 53° 355° (N) 21:55:56 2401.200-2431.200
DELFI C3 02 Aug 21:51:54 21:55:48 48° 74° (ENE) 21:59:45 145.870
AUBIESAT-1 02 Aug 21:55:42 21:58:14 15° 94° (E) 22:00:56 437.475
SEEDS 02 Aug 21:58:18 22:01:52 25° 265° (W) 22:05:22 437.485
CUTE 1.7 + AOD 2 02 Aug 22:05:02 22:08:00 18° 268° (W) 22:10:50 437.475
FUNcube-1 02 Aug 22:05:17 22:09:24 61° 76° (ENE) 22:13:39 145.935
UWE-3 02 Aug 22:12:38 22:16:48 79° 258° (WSW) 22:21:07 435.000/436.395/437.385
HO-68 02 Aug 22:14:33 22:20:23 26° 267° (W) 22:26:01 435.675
Oscar 11 02 Aug 22:14:42 22:18:58 58° 260° (W) 22:23:17 145.826/435.025
CANX-2 02 Aug 22:14:54 22:16:52 12° 271° (W) 22:18:36 2200.000
CINEMA 3 02 Aug 22:15:20 22:18:46 24° 266° (W) 22:22:10 145.822/145.860
HUMSAT D 02 Aug 22:15:56 22:19:36 32° 72° (ENE) 22:23:22 437.325/437.525
UKube-1 02 Aug 22:17:16 22:20:33 22° 69° (ENE) 22:23:57 .
AAUSAT CUBESAT 2 02 Aug 22:20:11 22:23:28 21° 267° (W) 22:26:40 437.432
Cosmos 2491 02 Aug 22:31:06 22:37:40 24° 66° (ENE) 22:44:33 435.465 / 435.565
AISAT 02 Aug 22:31:49 22:35:05 21° 69° (ENE) 22:38:28 437.250
CUBEBUG 2 02 Aug 22:32:44 22:36:34 34° 264° (W) 22:40:28 437.445
BEESAT 3 02 Aug 22:35:43 22:38:44 21° 112° (ESE) 22:41:53 437.485
CUBEBUG 1 02 Aug 22:40:56 22:43:12 15° 67° (ENE) 22:45:40 437.445
AIST 1 02 Aug 22:41:20 22:44:23 19° 73° (ENE) 22:47:32
VERMONT LUNAR 02 Aug 22:42:14 22:45:20 49° 204° (SSW) 22:48:23 437.305
DX 1 02 Aug 22:47:22 22:51:35 53° 74° (ENE) 22:55:50 434.975-435.025
YUBILEINY 02 Aug 22:54:24 22:57:12 12° 78° (ENE) 23:00:45 435.215
M-CUBED/EXP-1 PRIME 02 Aug 23:01:03 23:05:53 90° 321° (NW) 23:10:31 437.505
ISS 02 Aug 23:01:05 23:01:39 10° 344° (NNW) 23:02:10 145.825
UNISAT 6 02 Aug 23:03:57 23:08:04 30° 95° (E) 23:12:15 437.425
50 SAT 02 Aug 23:07:19 23:11:08 58° 75° (ENE) 23:15:01 437.505
VELOX 1 02 Aug 23:09:06 23:13:22 53° 74° (ENE) 23:17:41 145.980
ZACube-1 02 Aug 23:22:24 23:25:11 17° 269° (W) 23:27:51 437.345
DUCHIFAT 1 02 Aug 23:24:28 23:27:04 16° 92° (E) 23:29:51 145.980
PHONESAT 2.4 02 Aug 23:27:10 23:30:41 69° 12° (NNE) 23:34:10 2401.200-2431.200
ESTCUBE 1 02 Aug 23:28:25 23:32:53 61° 74° (ENE) 23:37:22 437.505/2401.250
AUBIESAT-1 02 Aug 23:28:40 23:33:18 53° 291° (WNW) 23:37:44 437.475
QB50P1 02 Aug 23:28:57 23:31:59 19° 93° (E) 23:35:08 145.935-145.965
NANOSAT C BR1 02 Aug 23:29:21 23:32:22 19° 93° (E) 23:35:30 145.865
DELFI C3 02 Aug 23:29:41 23:31:12 11° 270° (W) 23:32:28 145.870
BEESAT 2 02 Aug 23:35:19 23:39:25 78° 119° (ESE) 23:43:33 435.950
AIST 2 02 Aug 23:44:47 23:47:51 20° 112° (ESE) 23:51:02 435.215
TIGRISAT 02 Aug 23:46:01 23:50:44 85° 100° (E) 23:55:27 435.000
ANTELSAT 02 Aug 23:48:42 23:53:26 87° 282° (WNW) 23:58:10 437.575/2403.000
HUMSAT D 02 Aug 23:52:30 23:55:26 18° 268° (W) 23:58:17 437.325/437.525
UKube-1 02 Aug 23:52:46 23:56:33 29° 264° (W) 00:00:18 .
RS-15 02 Aug 23:53:43 00:03:27 33° 322° (NW) 00:13:20 29.354- 29.394
AISAT 03 Aug 00:07:34 00:11:30 31° 263° (W) 00:15:24 437.250
POLYITAN 1 03 Aug 00:12:12 00:16:28 65° 101° (E) 00:20:43 437.675
BEESAT 3 03 Aug 00:12:51 00:16:31 31° 308° (NW) 00:20:11 437.485
CUBEBUG 1 03 Aug 00:15:00 00:19:13 47° 261° (W) 00:23:25 437.445
AIST 1 03 Aug 00:18:24 00:22:06 28° 269° (W) 00:25:43
BUGSAT 1 03 Aug 00:21:52 00:25:50 47° 100° (E) 00:29:49 437.445
DX 1 03 Aug 00:26:32 00:28:14 12° 270° (W) 00:29:40 434.975-435.025
Cosmos 2491 03 Aug 00:26:44 00:35:23 68° 267° (W) 00:43:58 435.465 / 435.565
POPSAT HIP 1 03 Aug 00:28:25 00:32:42 83° 284° (WNW) 00:36:59 437.405
QB50P2 03 Aug 00:36:40 00:40:55 64° 284° (WNW) 00:45:08 145.880/145.840
M-CUBED/EXP-1 PRIME 03 Aug 00:38:47 00:39:57 11° 302° (WNW) 00:40:51 437.505
UNISAT 6 03 Aug 00:40:51 00:44:44 25° 290° (WNW) 00:48:32 437.425
SPROUT 03 Aug 00:42:55 00:47:11 82° 258° (WSW) 00:51:28 437.525
YUBILEINY 03 Aug 00:44:06 00:52:45 78° 95° (E) 01:01:32 435.215
TISAT 1 03 Aug 00:46:41 00:50:49 66° 75° (ENE) 00:54:58 437.305
BEESAT 03 Aug 00:46:45 00:48:11 12° 64° (ENE) 00:49:54 436.000
VELOX 1 03 Aug 00:48:23 00:50:18 12° 270° (W) 00:51:59 145.980
DUCHIFAT 1 03 Aug 00:59:06 01:03:03 37° 287° (WNW) 01:06:57 145.980
QB50P1 03 Aug 01:04:06 01:07:55 31° 288° (WNW) 01:11:40 145.935-145.965
NANOSAT C BR1 03 Aug 01:04:29 01:08:17 32° 288° (WNW) 01:12:02 145.865
PHONESAT 2.4 03 Aug 01:05:18 01:08:32 34° 208° (SSW) 01:11:43 2401.200-2431.200
SWISSCUBE 03 Aug 01:05:29 01:08:52 20° 67° (ENE) 01:12:25 437.505
ESTCUBE 1 03 Aug 01:08:40 01:10:13 11° 271° (W) 01:11:28 437.505/2401.250
BEESAT 2 03 Aug 01:16:30 01:18:03 12° 318° (NW) 01:19:25 435.950
AIST 2 03 Aug 01:22:16 01:26:13 35° 307° (NW) 01:30:09 435.215
ITUPSAT 1 03 Aug 01:26:42 01:30:48 29° 70° (ENE) 01:34:59 437.325
O/OREOS (USA 219) 03 Aug 01:38:50 01:43:18 88° 110° (ESE) 01:47:50 437.305
Oscar 19 03 Aug 01:49:34 01:53:49 26° 94° (E) 01:58:11 437.125/150
POLYITAN 1 03 Aug 01:50:47 01:51:53 11° 295° (WNW) 01:52:43 437.675
BUGSAT 1 03 Aug 01:59:00 02:00:56 13° 293° (WNW) 02:02:41 437.445
RS-15 03 Aug 02:14:32 02:20:59 16° 356° (N) 02:27:30 29.354- 29.394
ISS 03 Aug 02:14:43 02:16:55 17° 24° (NNE) 02:19:09 145.825
BEESAT 03 Aug 02:20:42 02:25:29 74° 258° (WSW) 02:30:18 436.000
KKS-1 03 Aug 02:39:16 02:42:56 27° 70° (ENE) 02:46:40 437.445
SWISSCUBE 03 Aug 02:41:58 02:46:29 40° 262° (W) 02:50:59 437.505
Cosmos 2504 03 Aug 02:42:22 02:49:11 53° 91° (E) 02:56:33 435.465 / 435.565
YUBILEINY 03 Aug 02:44:21 02:50:43 21° 296° (WNW) 02:56:43 435.215
JAS-2 03 Aug 02:59:47 03:05:07 20° 87° (E) 03:10:42 435.910
ITUPSAT 1 03 Aug 03:04:34 03:08:41 27° 265° (W) 03:12:41 437.325
Gurwin Techsat 1B 03 Aug 03:05:14 03:10:15 41° 98° (E) 03:15:15 435.225
ITAMSAT 1 03 Aug 03:14:51 03:19:47 44° 98° (E) 03:24:43 435.822/435.867
Oscar 19 03 Aug 03:28:34 03:33:14 34° 290° (WNW) 03:37:52 437.125/150
STARS 03 Aug 03:42:32 03:46:53 82° 76° (ENE) 03:51:17 437.465
MOZHAYETS 4 03 Aug 03:46:16 03:49:12 17° 67° (ENE) 03:52:18
ISS 03 Aug 03:50:25 03:53:40 70° 222° (SW) 03:56:54 145.825
KKS-1 03 Aug 04:15:51 04:19:31 25° 265° (W) 04:23:08 437.445
RS-15 03 Aug 04:30:12 04:39:16 26° 30° (NNE) 04:48:57 29.354- 29.394
JUGNU 03 Aug 04:31:17 04:34:01 13° 179° (S) 04:36:44 437.505
Cosmos 2504 03 Aug 04:36:00 04:41:55 26° 292° (WNW) 04:47:56 435.465 / 435.565
SRMSAT 03 Aug 04:41:08 04:41:48 10° 170° (S) 04:42:33 437.500
JAS-2 03 Aug 04:43:03 04:50:57 77° 286° (WNW) 04:58:34 435.910
Gurwin Techsat 1B 03 Aug 04:45:49 04:50:00 23° 293° (WNW) 04:54:02 435.225
AO-7 03 Aug 04:53:33 05:01:42 57° 102° (ESE) 05:09:50 29.400- 29.500
ITAMSAT 1 03 Aug 04:55:08 04:59:01 21° 294° (WNW) 05:02:44 435.822/435.867
DANDE 03 Aug 04:58:27 05:01:40 64° 278° (W) 05:04:23 436.750
CUSAT 1 03 Aug 05:03:13 05:05:36 24° 282° (WNW) 05:07:49 437.405
HORYU 2 03 Aug 05:14:26 05:18:57 79° 284° (WNW) 05:23:26 437.375
MOZHAYETS 4 03 Aug 05:21:40 05:26:06 44° 262° (W) 05:30:33
GONETS M04 03 Aug 05:27:24 05:34:44 33° 86° (E) 05:42:16
CUBESAT XI-V 03 Aug 05:45:34 05:49:23 26° 70° (ENE) 05:53:18 437.345
JUGNU 03 Aug 06:20:45 06:22:12 11° 189° (S) 06:23:34 437.505
SRMSAT 03 Aug 06:27:27 06:30:07 13° 180° (S) 06:32:48 437.500
JAS-2 03 Aug 06:30:24 06:34:53 16° 302° (WNW) 06:38:55 435.910
CUTE-I 03 Aug 06:38:37 06:42:52 25° 94° (E) 06:47:14 437.470
RS-15 03 Aug 06:42:20 06:54:12 76° 57° (ENE) 07:06:28 29.354- 29.394
AO-7 03 Aug 06:47:01 06:54:09 32° 299° (WNW) 07:01:03 29.400- 29.500
STRAND 1 03 Aug 07:09:30 07:14:34 62° 73° (ENE) 07:19:39 437.568
Cubesat XI-IV 03 Aug 07:22:38 07:27:57 68° 101° (E) 07:33:14 437.490
CUBESAT XI-V 03 Aug 07:22:42 07:26:45 28° 265° (W) 07:30:45 437.345
GONETS M04 03 Aug 07:22:55 07:31:19 49° 284° (WNW) 07:39:39
PRISM 03 Aug 07:26:51 07:31:02 78° 75° (ENE) 07:35:13 437.425
Cosmos 2499 03 Aug 07:27:51 07:34:42 44° 89° (E) 07:42:09 435.465 / 435.565
BEESAT 2 03 Aug 07:56:28 07:59:56 26° 51° (NE) 08:03:23 435.950
PCSat 03 Aug 08:13:42 08:18:11 28° 109° (ESE) 08:22:48 145.827
SRMSAT 03 Aug 08:17:26 08:18:27 10° 190° (S) 08:19:24 437.500
CUTE-I 03 Aug 08:18:11 08:23:04 37° 290° (WNW) 08:27:52 437.470
SO-50 03 Aug 08:27:28 08:31:30 29° 113° (ESE) 08:35:42 436.795
BEESAT 3 03 Aug 08:32:27 08:36:30 85° 59° (ENE) 08:40:29 437.485
AUBIESAT-1 03 Aug 08:41:45 08:43:51 14° 60° (ENE) 08:46:11 437.475
DOVE 4 03 Aug 08:42:12 08:45:46 21° 94° (E) 08:49:37 437.250
STRAND 1 03 Aug 08:51:30 08:54:16 14° 270° (W) 08:56:44 437.568
RS-15 03 Aug 08:56:06 09:05:52 29° 255° (WSW) 09:15:19 29.354- 29.394
Cubesat XI-IV 03 Aug 09:04:31 09:07:32 15° 297° (WNW) 09:10:19 437.490
GOMX 1 03 Aug 09:04:35 09:09:11 61° 101° (E) 09:14:06 467.674
BRITE-PL 03 Aug 09:06:07 09:10:36 76° 284° (WNW) 09:15:26 437.365/2234.400
Cosmos 2499 03 Aug 09:21:26 09:28:05 33° 290° (WNW) 09:35:01 435.465 / 435.565
COMPASS 1 03 Aug 09:24:54 09:28:29 27° 95° (E) 09:32:06 437.405
BEESAT 2 03 Aug 09:34:33 09:37:54 25° 247° (WSW) 09:41:08 435.950
HO-68 03 Aug 09:42:17 09:49:28 69° 103° (ESE) 09:56:38 435.675
SEEDS 03 Aug 09:43:34 09:47:47 59° 100° (E) 09:51:57 437.485
AIST 2 03 Aug 09:45:16 09:49:29 84° 59° (ENE) 09:53:36 435.215
M-CUBED/EXP-1 PRIME 03 Aug 09:47:00 09:51:03 85° 70° (ENE) 09:55:29 437.505
CUTE 1.7 + AOD 2 03 Aug 09:50:23 09:54:43 89° 275° (W) 09:58:58 437.475
PCSat 03 Aug 09:56:28 10:01:29 37° 305° (NW) 10:06:29 145.827
FUNcube-1 03 Aug 09:56:41 09:59:08 15° 90° (E) 10:01:49 145.935
CANX-2 03 Aug 09:59:13 10:03:29 62° 284° (WNW) 10:07:43 2200.000
UNISAT 6 03 Aug 10:01:49 10:05:02 21° 68° (ENE) 10:08:26 437.425
AAUSAT CUBESAT 2 03 Aug 10:03:43 10:07:54 67° 101° (E) 10:12:03 437.432
Oscar 11 03 Aug 10:04:12 10:07:57 28° 95° (E) 10:11:44 145.826/435.025
UWE-3 03 Aug 10:04:31 10:08:18 25° 94° (E) 10:12:12 435.000/436.395/437.385
SO-50 03 Aug 10:07:40 10:11:58 32° 310° (NW) 10:16:21 436.795
CINEMA 3 03 Aug 10:10:13 10:15:00 82° 102° (ESE) 10:19:57 145.822/145.860
O/OREOS (USA 219) 03 Aug 10:13:20 10:15:14 13° 53° (NE) 10:17:20 437.305
AUBIESAT-1 03 Aug 10:14:04 10:18:03 54° 256° (WSW) 10:22:23 437.475
DOVE 4 03 Aug 10:19:17 10:23:37 36° 287° (WNW) 10:28:06 437.250
QB50P1 03 Aug 10:21:31 10:23:04 12° 66° (ENE) 10:24:49 145.935-145.965
NANOSAT C BR1 03 Aug 10:21:46 10:23:14 12° 66° (ENE) 10:24:56 145.865
CUBEBUG 2 03 Aug 10:24:41 10:29:18 54° 99° (E) 10:33:57 437.445
DX 1 03 Aug 10:40:28 10:41:03 10° 89° (E) 10:41:55 434.975-435.025
TIGRISAT 03 Aug 10:42:54 10:47:09 57° 75° (ENE) 10:51:31 435.000
GOMX 1 03 Aug 10:44:39 10:46:59 13° 292° (WNW) 10:49:08 467.674
ANTELSAT 03 Aug 10:45:44 10:50:03 65° 75° (ENE) 10:54:29 437.575/2403.000
YUBILEINY 03 Aug 10:57:02 11:04:50 35° 71° (ENE) 11:12:47 435.215
COMPASS 1 03 Aug 11:00:42 11:04:02 22° 290° (WNW) 11:07:15 437.405
POLYITAN 1 03 Aug 11:03:26 11:07:16 37° 73° (ENE) 11:11:11 437.675
VELOX 1 03 Aug 11:03:39 11:04:59 11° 90° (E) 11:06:34 145.980
DELFI C3 03 Aug 11:07:25 11:11:29 75° 284° (WNW) 11:15:29 145.870
AIST 1 03 Aug 11:10:16 11:12:07 13° 87° (E) 11:14:12
BUGSAT 1 03 Aug 11:10:34 11:13:52 25° 71° (ENE) 11:17:15 437.445
ZACube-1 03 Aug 11:10:40 11:15:15 80° 283° (WNW) 11:19:52 437.345
POPSAT HIP 1 03 Aug 11:19:10 11:23:16 56° 75° (ENE) 11:27:24 437.405
SEEDS 03 Aug 11:21:41 11:23:06 11° 294° (WNW) 11:24:17 437.485
ESTCUBE 1 03 Aug 11:24:30 11:26:52 15° 91° (E) 11:29:27 437.505/2401.250
QB50P2 03 Aug 11:27:24 11:31:35 74° 76° (ENE) 11:35:48 145.880/145.840
Cosmos 2491 03 Aug 11:30:20 11:37:22 29° 85° (E) 11:44:39 435.465 / 435.565
HO-68 03 Aug 11:31:16 11:36:38 22° 299° (WNW) 11:41:46 435.675
FUNcube-1 03 Aug 11:31:21 11:35:45 48° 286° (WNW) 11:40:09 145.935
HUMSAT D 03 Aug 11:36:35 11:40:57 81° 104° (ESE) 11:45:16 437.325/437.525
UNISAT 6 03 Aug 11:37:43 11:41:38 32° 264° (W) 11:45:37 437.425
Oscar 11 03 Aug 11:40:32 11:44:00 23° 290° (WNW) 11:47:22 145.826/435.025
UWE-3 03 Aug 11:40:46 11:44:49 30° 289° (WNW) 11:48:49 435.000/436.395/437.385
UKube-1 03 Aug 11:41:22 11:45:35 51° 100° (E) 11:49:47 .
DUCHIFAT 1 03 Aug 11:49:03 11:53:11 65° 259° (W) 11:57:21 145.980
O/OREOS (USA 219) 03 Aug 11:50:39 11:55:13 66° 252° (WSW) 11:59:45 437.305
CINEMA 3 03 Aug 11:50:41 11:51:40 10° 295° (WNW) 11:52:21 145.822/145.860
QB50P1 03 Aug 11:54:24 11:58:30 53° 260° (W) 12:02:38 145.935-145.965
NANOSAT C BR1 03 Aug 11:54:33 11:58:39 54° 260° (W) 12:02:47 145.865
AISAT 03 Aug 11:59:22 12:03:42 54° 100° (E) 12:08:02 437.250
CUBEBUG 2 03 Aug 12:02:51 12:05:35 15° 293° (WNW) 12:08:09 437.445
CUBEBUG 1 03 Aug 12:05:40 12:09:36 34° 97° (E) 12:13:34 437.445
DX 1 03 Aug 12:13:28 12:17:45 60° 285° (WNW) 12:22:02 434.975-435.025
50 SAT 03 Aug 12:18:45 12:22:43 68° 284° (WNW) 12:26:39 437.505
TIGRISAT 03 Aug 12:22:59 12:24:23 11° 272° (W) 12:25:31 435.000
Cosmos 2504 03 Aug 12:31:39 12:36:25 17° 63° (ENE) 12:41:45 435.465 / 435.565
SPROUT 03 Aug 12:32:12 12:35:17 20° 93° (E) 12:38:30 437.525
TISAT 1 03 Aug 12:35:02 12:36:27 12° 90° (E) 12:38:08 437.305
VELOX 1 03 Aug 12:37:37 12:41:57 56° 286° (WNW) 12:46:15 145.980
POLYITAN 1 03 Aug 12:40:41 12:43:21 16° 268° (W) 12:45:53 437.675
AIST 1 03 Aug 12:45:14 12:49:24 45° 281° (W) 12:53:34
BUGSAT 1 03 Aug 12:46:10 12:49:20 21° 266° (W) 12:52:24 437.445
YUBILEINY 03 Aug 12:53:33 13:01:55 48° 270° (W) 13:10:11 435.215
POPSAT HIP 1 03 Aug 12:58:41 12:59:33 10° 271° (W) 13:00:09 437.405
ESTCUBE 1 03 Aug 12:59:44 13:04:03 46° 287° (WNW) 13:08:18 437.505/2401.250
Oscar 19 03 Aug 13:04:40 13:09:05 31° 70° (ENE) 13:13:37 437.125/150
UKube-1 03 Aug 13:19:07 13:21:19 13° 294° (WNW) 13:23:20 .
Cosmos 2491 03 Aug 13:25:15 13:33:50 55° 283° (WNW) 13:42:21 435.465 / 435.565
AISAT 03 Aug 13:37:40 13:39:52 13° 294° (WNW) 13:41:51 437.250
CUBEBUG 1 03 Aug 13:42:39 13:45:45 19° 291° (WNW) 13:48:44 437.445
AO-7 03 Aug 14:03:31 14:06:54 14° 50° (NE) 14:10:47 29.400- 29.500
SPROUT 03 Aug 14:07:36 14:11:26 31° 288° (WNW) 14:15:14 437.525
TISAT 1 03 Aug 14:08:28 14:12:34 50° 286° (WNW) 14:16:40 437.305
Cosmos 2504 03 Aug 14:21:28 14:30:00 86° 83° (E) 14:38:40 435.465 / 435.565
BEESAT 03 Aug 14:23:08 14:27:23 32° 96° (E) 14:31:40 436.000
Gurwin Techsat 1B 03 Aug 14:24:23 14:29:32 55° 73° (ENE) 14:34:45 435.225
ITAMSAT 1 03 Aug 14:30:51 14:35:57 56° 73° (ENE) 14:41:04 435.822/435.867
SWISSCUBE 03 Aug 14:43:48 14:48:31 59° 101° (E) 14:53:12 437.505
Oscar 19 03 Aug 14:44:04 14:48:27 28° 265° (W) 14:52:47 437.125/150
JAS-2 03 Aug 14:53:06 14:58:45 40° 68° (ENE) 15:05:11 435.910
ITUPSAT 1 03 Aug 15:06:05 15:10:53 89° 297° (WNW) 15:15:39 437.325
STARS 03 Aug 15:35:08 15:37:59 17° 92° (E) 15:41:01 437.465
DANDE 03 Aug 15:36:16 15:40:22 64° 81° (E) 15:45:55 436.750
CUSAT 1 03 Aug 15:36:35 15:41:10 80° 262° (W) 15:47:20 437.405
GONETS M04 03 Aug 15:41:13 15:44:56 14° 59° (ENE) 15:49:20
AO-7 03 Aug 15:50:06 15:58:19 65° 69° (ENE) 16:06:36 29.400- 29.500
BEESAT 03 Aug 16:01:13 16:05:06 24° 291° (WNW) 16:08:50 436.000
Gurwin Techsat 1B 03 Aug 16:06:28 16:09:56 17° 269° (W) 16:13:09 435.225
KKS-1 03 Aug 16:07:43 16:12:10 71° 102° (ESE) 16:16:38 437.445
HORYU 2 03 Aug 16:10:32 16:14:58 75° 76° (ENE) 16:19:27 437.375
ITAMSAT 1 03 Aug 16:12:39 16:15:53 16° 269° (W) 16:18:52 435.822/435.867
Cosmos 2504 03 Aug 16:15:53 16:21:21 18° 279° (W) 16:26:20 435.465 / 435.565
SWISSCUBE 03 Aug 16:23:22 16:25:55 14° 295° (WNW) 16:28:14 437.505
JAS-2 03 Aug 16:38:31 16:43:58 32° 268° (W) 16:49:56 435.910
VERMONT LUNAR 03 Aug 16:49:39 16:52:18 25° 151° (SSE) 16:54:59 437.305
SO-50 03 Aug 17:00:47 17:04:20 20° 45° (NE) 17:07:57 436.795
PCSat 03 Aug 17:03:31 17:07:04 18° 46° (NE) 17:10:46 145.827
Cubesat XI-IV 03 Aug 17:07:10 17:08:40 11° 62° (ENE) 17:10:30 437.490
STARS 03 Aug 17:10:29 17:14:37 38° 288° (WNW) 17:18:41 437.465
MOZHAYETS 4 03 Aug 17:18:30 17:22:59 49° 99° (E) 17:27:26
Cosmos 2499 03 Aug 17:22:00 17:26:37 16° 61° (ENE) 17:31:50 435.465 / 435.565
DANDE 03 Aug 17:22:47 17:23:34 10° 265° (W) 17:24:02 436.750
GONETS M04 03 Aug 17:34:52 17:43:37 77° 82° (E) 17:52:23
AO-7 03 Aug 17:44:58 17:51:44 26° 267° (W) 17:58:14 29.400- 29.500
KKS-1 03 Aug 17:47:14 17:48:17 11° 296° (WNW) 17:49:04 437.445
PHONESAT 2.4 03 Aug 17:51:08 17:52:08 11° 143° (SE) 17:53:15 2401.200-2431.200
CUTE-I 03 Aug 17:58:29 18:03:16 35° 70° (ENE) 18:08:08 437.470
VERMONT LUNAR 03 Aug 18:25:40 18:28:50 76° 345° (NNW) 18:32:01 437.305
SO-50 03 Aug 18:40:26 18:45:17 56° 243° (WSW) 18:49:59 436.795
Cubesat XI-IV 03 Aug 18:42:43 18:48:06 89° 248° (WSW) 18:53:31 437.490
PCSat 03 Aug 18:45:40 18:51:05 69° 245° (WSW) 18:56:27 145.827
MOZHAYETS 4 03 Aug 18:57:01 18:59:50 16° 293° (WNW) 19:02:27
